Location: Home
(42.5358°N, 72.7383°W)
Time: 14:46:36
(UTC-05:00)

VELOX 1 - Visible Passes

Search period start: 19 January 2022 00:00
Search period end: 29 January 2022 00:00
Orbit: 626 x 642 km, 98.3° (Epoch: 19 January)

Date Brightness Start Highest point End Pass type
(mag) Time Alt. Az. Time Alt. Az. Time Alt. Az.
19 Jan ? 17:43:40 10° NNW 17:47:11 24° WNW 17:50:41 10° WSW visible
20 Jan ? 18:06:01 10° NNW 18:08:32 15° WNW 18:11:03 10° W visible
23 Jan ? 17:33:22 10° N 17:37:12 30° WNW 17:41:03 10° SW visible
24 Jan ? 17:55:29 10° NNW 17:58:36 19° WNW 18:01:42 10° WSW visible
25 Jan ? 18:18:12 10° NW 18:19:55 12° WNW 18:21:37 10° W visible
27 Jan ? 17:23:06 10° N 17:27:11 39° WNW 17:31:16 10° SW visible
28 Jan ? 17:45:02 10° NNW 17:48:35 24° WNW 17:52:07 10° WSW visible
